{"data":{"norad_id":48070,"epoch":"2026-05-25T00:18:12.257568Z","epoch_age_seconds":70602,"freshness":"FRESH","line1":"1 48070U 21025AE  26145.01264187  .00000223  00000+0  57555-3 0  9992","line2":"2 48070  87.8940 324.8476 0001707  89.6098 270.5226 13.13469263250577","mean_motion":13.13469263,"eccentricity":0.0001707,"inclination_deg":87.894,"raan_deg":324.8476,"arg_perigee_deg":89.6098,"mean_anomaly_deg":270.5226,"bstar":0.00057555,"rev_number":25057,"period_min":109.63332302965,"perigee_km":1208.4729829049,"apogee_km":1211.0634937533,"semimajor_km":7587.9052383291,"source":"CELESTRAK","updated_at":"2026-05-25T13:38:22.393618Z"}}